Meadville, PA

7:00 AM EST on January 18, 2018 (GMT -0500)
Port Meadville

Weather History for KGKJ - November, 2012

Change the Weather History Date:

Sunday, November 4, 2012

  Actual Average Record
Temperature  
Mean Temperature 34 °F -  
Max Temperature 37 °F 55 °F 80 °F (1961)
Min Temperature 33 °F 35 °F 16 °F (1991)
Degree Days  
Heating Degree Days 30    
Moisture  
Dew Point 27 °F    
Average Humidity 74    
Maximum Humidity 85    
Minimum Humidity 67    
Precipitation  
Precipitation 0.05 in - - ()
Sea Level Pressure  
Sea Level Pressure 30.12 in    
Wind  
Wind Speed 3 mph (NW)    
Max Wind Speed 10 mph    
Max Gust Speed -    
Visibility 10 miles    
Events      
Averages and records for this station are not official NWS values.
T = Trace of Precipitation, MM = Missing Value Source: NWS Daily Summary

Daily Weather History Graph

Daily Weather History Graph

Search for Another Location

Airport or City:

Trip Planner

Search our weather history database for the weather conditions in past years. The results will help you decide how hot, cold, wet, or windy it might be!

Date:

Astronomy

Nov. 04, 2012 Rise Set
Actual Time 6:57 AM EST 5:11 PM EST
Civil Twilight 6:27 AM EST 5:40 PM EST
Nautical Twilight 5:54 AM EST 6:13 PM EST
Astronomical Twilight 5:22 AM EST 6:45 PM EST
Moon 9:47 PM EST (11/4) 11:40 AM EST (11/4)
Length of Visible Light 11h 12m
Length of Day
10h 14m
Waning Gibbous, 72% of the Moon is Illuminated
Nov 4
Waning Gibbous
Nov 6
Last Quarter
Nov 13
New
Nov 20
First Quarter
Nov 28
Full

Hourly Weather History & Observations

Time (EST) Temp. Windchill Dew Point Humidity Pressure Visibility Wind Dir Wind Speed Gust Speed Precip Events Conditions
12:53 AM 36.0 °F 33.3 °F 30.0 °F 79% 30.11 in 10.0 mi NW 3.5 mph - N/A   Overcast
1:53 AM 35.1 °F - 30.9 °F 85% 30.11 in 10.0 mi Calm Calm - N/A   Overcast
1:53 AM 35.1 °F - 30.0 °F 82% 30.12 in 10.0 mi Calm Calm - N/A   Overcast
2:33 AM 35.6 °F - 28.4 °F 75% 30.08 in 10.0 mi Calm Calm - N/A   Overcast
2:53 AM 35.1 °F 31.0 °F 28.9 °F 78% 30.12 in 10.0 mi West 4.6 mph - 0.01 in   Overcast
3:53 AM 35.1 °F 32.2 °F 28.9 °F 78% 30.13 in 10.0 mi WNW 3.5 mph - N/A   Overcast
4:53 AM 34.0 °F 31.0 °F 26.1 °F 73% 30.12 in 10.0 mi North 3.5 mph - N/A   Overcast
5:53 AM 34.0 °F 31.0 °F 27.0 °F 75% 30.12 in 10.0 mi West 3.5 mph - N/A   Overcast
6:53 AM 33.1 °F - 26.1 °F 75% 30.12 in 10.0 mi Calm Calm - N/A   Overcast
7:22 AM 33.8 °F - 26.6 °F 75% 30.09 in 10.0 mi Calm Calm - 0.01 in   Overcast
7:53 AM 34.0 °F 29.8 °F 27.0 °F 75% 30.14 in 10.0 mi NW 4.6 mph - 0.01 in   Overcast
8:53 AM 34.0 °F 28.8 °F 26.1 °F 73% 30.14 in 10.0 mi NW 5.8 mph - N/A   Overcast
9:53 AM 35.1 °F 30.1 °F 25.0 °F 67% 30.14 in 10.0 mi North 5.8 mph - N/A   Overcast
10:53 AM 35.1 °F 31.0 °F 25.0 °F 67% 30.14 in 10.0 mi NNW 4.6 mph - N/A   Overcast
11:53 AM 36.0 °F 32.1 °F 26.1 °F 67% 30.14 in 10.0 mi Variable 4.6 mph - 0.01 in   Overcast
12:53 PM 35.1 °F 27.9 °F 25.0 °F 67% 30.13 in 10.0 mi NW 9.2 mph - N/A   Overcast
1:53 PM 36.0 °F 32.1 °F 27.0 °F 70% 30.12 in 10.0 mi NW 4.6 mph - N/A   Overcast
2:53 PM 36.0 °F 28.5 °F 26.1 °F 67% 30.12 in 10.0 mi WNW 10.4 mph - N/A   Overcast
3:53 PM 36.0 °F 32.1 °F 26.1 °F 67% 30.12 in 10.0 mi NNW 4.6 mph - N/A   Overcast
4:53 PM 35.1 °F 31.0 °F 27.0 °F 72% 30.13 in 10.0 mi NW 4.6 mph - 0.01 in   Overcast
5:53 PM 35.1 °F - 27.0 °F 72% 30.12 in 10.0 mi Calm Calm - N/A   Overcast
6:53 PM 35.1 °F - 27.0 °F 72% 30.13 in 10.0 mi Calm Calm - N/A   Overcast
7:53 PM 35.1 °F - 28.0 °F 76% 30.12 in 10.0 mi Calm Calm - N/A   Overcast
8:53 PM 35.1 °F - 27.0 °F 72% 30.12 in 10.0 mi Calm Calm - N/A   Overcast
9:53 PM 35.1 °F - 28.0 °F 76% 30.12 in 10.0 mi Calm Calm - 0.01 in   Overcast
10:24 PM 35.6 °F - 28.4 °F 75% 30.08 in 10.0 mi Calm Calm - N/A   Overcast
10:53 PM 35.1 °F - 28.9 °F 78% 30.11 in 10.0 mi Calm Calm - N/A   Overcast